When you browse on this site, cookies collect data to enhance your experience and personalize the content and advertising you see.
Visit our Privacy Policy to learn more. By continuing to use the site, you agree to this use of cookies and data.
  • In Österreich
  • Länderverzeichnis
  • Für 7 Tage
  • Wassertemperatur
  • Satellitenkarten
  • Wetterkarte
  • News
  • Widgets
  • user-avatar
    Anmelden

    Stündliche Wetter Granica

    Heute, 24 April, Mittwoch

    Zeit Temperatur Niederschläge Wind Luftdruck Luftfeuchtigkeit
    00:00 +11°C° 0 mm 7 m/S 754 mmHg 52%
    01:00 +10°C° 0 mm 6 m/S 754 mmHg 54%
    02:00 +10°C° 0 mm 6 m/S 754 mmHg 55%
    03:00 +9°C° 0 mm 6 m/S 754 mmHg 56%
    04:00 +9°C° 0 mm 6 m/S 754 mmHg 57%
    05:00 +10°C° 0 mm 6 m/S 754 mmHg 58%
    06:00 +10°C° 0 mm 7 m/S 754 mmHg 58%
    07:00 +11°C° 0 mm 7 m/S 754 mmHg 57%
    08:00 +14°C° 0 mm 7 m/S 754 mmHg 55%
    09:00 +15°C° 0 mm 8 m/S 754 mmHg 54%
    10:00 +17°C° 0 mm 8 m/S 754 mmHg 52%
    11:00 +18°C° 0 mm 8 m/S 754 mmHg 51%
    12:00 +20°C° 0 mm 8 m/S 754 mmHg 49%
    13:00 +21°C° 0 mm 8 m/S 754 mmHg 48%
    14:00 +21°C° 0 mm 8 m/S 753 mmHg 49%
    15:00 +21°C° 0 mm 8 m/S 753 mmHg 50%
    16:00 +21°C° 0 mm 7 m/S 753 mmHg 51%
    17:00 +20°C° 0 mm 7 m/S 753 mmHg 55%
    18:00 +17°C° 0 mm 6 m/S 753 mmHg 59%
    19:00 +16°C° 0 mm 5 m/S 753 mmHg 64%
    20:00 +16°C° 0 mm 5 m/S 753 mmHg 66%
    21:00 +15°C° 0 mm 5 m/S 753 mmHg 68%
    22:00 +14°C° 0 mm 5 m/S 753 mmHg 70%
    23:00 +14°C° 0 mm 5 m/S 753 mmHg 72%

    Morgen, 25 April, Donnerstag

    Zeit Temperatur Niederschläge Wind Luftdruck Luftfeuchtigkeit
    00:00 +14°C° 0 mm 5 m/S 753 mmHg 74%
    01:00 +13°C° 0 mm 5 m/S 753 mmHg 76%
    02:00 +13°C° 0 mm 5 m/S 753 mmHg 78%
    03:00 +12°C° 0 mm 5 m/S 753 mmHg 80%
    04:00 +12°C° 0 mm 5 m/S 753 mmHg 81%
    05:00 +13°C° 0 mm 5 m/S 753 mmHg 78%
    06:00 +14°C° 0 mm 5 m/S 753 mmHg 75%
    07:00 +15°C° 0 mm 6 m/S 752 mmHg 73%
    08:00 +17°C° 0 mm 6 m/S 752 mmHg 67%
    09:00 +20°C° 0 mm 6 m/S 752 mmHg 62%
    10:00 +22°C° 0 mm 5 m/S 752 mmHg 57%
    11:00 +23°C° 0.2 mm 5 m/S 752 mmHg 54%
    12:00 +23°C° 0.2 mm 5 m/S 752 mmHg 51%
    13:00 +25°C° 0.2 mm 5 m/S 752 mmHg 49%
    14:00 +25°C° 0.3 mm 5 m/S 751 mmHg 49%
    15:00 +25°C° 0.3 mm 4 m/S 751 mmHg 50%
    16:00 +25°C° 0.3 mm 4 m/S 751 mmHg 51%
    17:00 +22°C° 0.1 mm 3 m/S 751 mmHg 57%
    18:00 +20°C° 0.1 mm 2 m/S 751 mmHg 63%
    19:00 +20°C° 0.1 mm 1 m/S 751 mmHg 69%
    20:00 +19°C° 0 mm 1 m/S 751 mmHg 70%
    21:00 +19°C° 0 mm 1 m/S 751 mmHg 72%
    22:00 +18°C° 0 mm 1 m/S 751 mmHg 74%
    23:00 +17°C° 0 mm 2 m/S 751 mmHg 74%

    übermorgen, 26 April, Freitag

    Zeit Temperatur Niederschläge Wind Luftdruck Luftfeuchtigkeit
    00:00 +17°C° 0 mm 2 m/S 751 mmHg 74%
    01:00 +17°C° 0 mm 2 m/S 751 mmHg 75%
    02:00 +17°C° 0 mm 3 m/S 751 mmHg 77%
    03:00 +16°C° 0 mm 3 m/S 750 mmHg 79%
    04:00 +14°C° 0 mm 3 m/S 750 mmHg 81%
    05:00 +16°C° 0 mm 3 m/S 750 mmHg 77%
    06:00 +17°C° 0 mm 4 m/S 749 mmHg 73%
    07:00 +18°C° 0 mm 4 m/S 749 mmHg 68%
    08:00 +20°C° 0 mm 4 m/S 749 mmHg 63%
    09:00 +22°C° 0 mm 5 m/S 748 mmHg 59%
    10:00 +25°C° 0 mm 5 m/S 748 mmHg 54%
    11:00 +26°C° 0 mm 5 m/S 748 mmHg 50%
    12:00 +27°C° 0 mm 4 m/S 747 mmHg 46%
    13:00 +28°C° 0 mm 4 m/S 747 mmHg 42%
    14:00 +27°C° 0 mm 4 m/S 747 mmHg 42%
    15:00 +27°C° 0 mm 4 m/S 746 mmHg 43%
    16:00 +27°C° 0 mm 3 m/S 746 mmHg 43%
    17:00 +25°C° 0 mm 3 m/S 746 mmHg 47%
    18:00 +23°C° 0 mm 2 m/S 746 mmHg 51%
    19:00 +22°C° 0 mm 1 m/S 746 mmHg 55%
    20:00 +21°C° 0 mm 1 m/S 746 mmHg 58%
    21:00 +19°C° 0 mm 2 m/S 746 mmHg 60%
    22:00 +19°C° 0 mm 2 m/S 746 mmHg 63%
    23:00 +18°C° 0 mm 2 m/S 746 mmHg 65%

    27 April, Samstag

    Zeit Temperatur Niederschläge Wind Luftdruck Luftfeuchtigkeit
    00:00 +18°C° 0 mm 2 m/S 746 mmHg 67%
    01:00 +17°C° 0 mm 2 m/S 746 mmHg 69%
    02:00 +17°C° 0 mm 2 m/S 746 mmHg 70%
    03:00 +17°C° 0 mm 3 m/S 746 mmHg 72%
    04:00 +16°C° 0 mm 3 m/S 746 mmHg 73%
    05:00 +17°C° 0.1 mm 4 m/S 747 mmHg 76%
    06:00 +16°C° 0.1 mm 5 m/S 747 mmHg 79%
    07:00 +16°C° 0.1 mm 6 m/S 747 mmHg 82%
    08:00 +16°C° 0.2 mm 6 m/S 747 mmHg 81%
    09:00 +16°C° 0.2 mm 5 m/S 748 mmHg 81%
    10:00 +16°C° 0.2 mm 5 m/S 748 mmHg 81%
    11:00 +16°C° 0 mm 5 m/S 748 mmHg 78%
    12:00 +16°C° 0 mm 5 m/S 748 mmHg 75%
    13:00 +16°C° 0 mm 5 m/S 748 mmHg 72%
    14:00 +16°C° 0 mm 5 m/S 748 mmHg 70%
    15:00 +17°C° 0 mm 5 m/S 748 mmHg 69%
    16:00 +17°C° 0 mm 5 m/S 748 mmHg 67%
    17:00 +17°C° 0 mm 4 m/S 748 mmHg 70%
    18:00 +15°C° 0 mm 4 m/S 748 mmHg 73%
    19:00 +14°C° 0 mm 3 m/S 748 mmHg 76%
    20:00 +14°C° 0 mm 3 m/S 748 mmHg 76%
    21:00 +14°C° 0 mm 3 m/S 749 mmHg 76%
    22:00 +14°C° 0 mm 2 m/S 749 mmHg 76%
    23:00 +13°C° 0 mm 3 m/S 749 mmHg 78%

    28 April, Sonntag

    Zeit Temperatur Niederschläge Wind Luftdruck Luftfeuchtigkeit
    00:00 +12°C° 0 mm 3 m/S 749 mmHg 80%
    01:00 +12°C° 0 mm 3 m/S 749 mmHg 81%
    02:00 +11°C° 0.1 mm 3 m/S 749 mmHg 82%
    03:00 +10°C° 0.1 mm 4 m/S 749 mmHg 83%
    04:00 +10°C° 0.1 mm 4 m/S 749 mmHg 84%
    05:00 +10°C° 0 mm 3 m/S 749 mmHg 82%
    06:00 +10°C° 0 mm 3 m/S 750 mmHg 79%
    07:00 +10°C° 0 mm 3 m/S 750 mmHg 77%
    08:00 +11°C° 0.1 mm 3 m/S 750 mmHg 77%
    09:00 +11°C° 0.1 mm 3 m/S 750 mmHg 76%
    10:00 +11°C° 0.1 mm 4 m/S 750 mmHg 75%
    11:00 +12°C° 0.1 mm 4 m/S 750 mmHg 74%
    12:00 +13°C° 0.1 mm 4 m/S 750 mmHg 73%
    13:00 +13°C° 0.1 mm 4 m/S 750 mmHg 72%
    14:00 +14°C° 0 mm 4 m/S 750 mmHg 73%
    15:00 +14°C° 0 mm 3 m/S 750 mmHg 73%
    16:00 +16°C° 0 mm 3 m/S 750 mmHg 73%
    17:00 +14°C° 0 mm 3 m/S 750 mmHg 76%
    18:00 +14°C° 0 mm 3 m/S 750 mmHg 79%
    19:00 +14°C° 0 mm 3 m/S 750 mmHg 82%
    20:00 +13°C° 0.1 mm 3 m/S 750 mmHg 84%
    21:00 +13°C° 0.1 mm 3 m/S 751 mmHg 86%
    22:00 +13°C° 0.1 mm 4 m/S 751 mmHg 88%
    23:00 +13°C° 0 mm 4 m/S 750 mmHg 90%

    29 April, Montag

    Zeit Temperatur Niederschläge Wind Luftdruck Luftfeuchtigkeit
    00:00 +12°C° 0 mm 4 m/S 750 mmHg 91%
    01:00 +12°C° 0 mm 4 m/S 750 mmHg 93%
    02:00 +12°C° 0.3 mm 3 m/S 750 mmHg 94%
    03:00 +12°C° 0.3 mm 3 m/S 750 mmHg 95%
    04:00 +12°C° 0.3 mm 3 m/S 750 mmHg 95%
    05:00 +12°C° 0.4 mm 4 m/S 750 mmHg 94%
    06:00 +13°C° 0.4 mm 4 m/S 751 mmHg 92%
    07:00 +14°C° 0.4 mm 4 m/S 751 mmHg 91%
    08:00 +14°C° 0.1 mm 5 m/S 751 mmHg 87%
    09:00 +14°C° 0.1 mm 6 m/S 751 mmHg 83%
    10:00 +15°C° 0.1 mm 6 m/S 751 mmHg 79%
    11:00 +14°C° 0.2 mm 6 m/S 752 mmHg 79%
    12:00 +13°C° 0.2 mm 6 m/S 752 mmHg 79%
    13:00 +13°C° 0.2 mm 6 m/S 752 mmHg 79%
    14:00 +13°C° 0.1 mm 6 m/S 752 mmHg 78%
    15:00 +13°C° 0.1 mm 6 m/S 752 mmHg 76%
    16:00 +13°C° 0.1 mm 6 m/S 752 mmHg 75%
    17:00 +13°C° 0 mm 5 m/S 753 mmHg 75%
    18:00 +12°C° 0 mm 5 m/S 753 mmHg 76%
    19:00 +12°C° 0 mm 4 m/S 753 mmHg 76%
    20:00 +12°C° 0 mm 4 m/S 754 mmHg 75%
    21:00 +12°C° 0 mm 4 m/S 754 mmHg 73%
    22:00 +12°C° 0 mm 4 m/S 754 mmHg 72%
    23:00 +12°C° 0 mm 4 m/S 754 mmHg 70%
    Mehr zeigen